Regional Weather Roundup
Issued by NWS

Home | Current Version | Previous Version | Text Only | Print | Product List | Glossary Off
Versions: 1 2 3 4 5 6 7 8 9 10 11 12 13 14 15 16 17 18 19 20 21 22 23 24 25 26 27 28 29 30 31 32 33 34 35 36 37 38 39 40 41 42 43 44 45 46 47 48 49 50

000
ASUS43 KBIS 212310
RWRND

NORTH DAKOTA REGIONAL WEATHER ROUNDUP
NATIONAL WEATHER SERVICE BISMARCK ND
600 PM CDT TUE OCT 21 2014

NOTE: "FAIR" INDICATES FEW OR NO CLOUDS BELOW 12,000 FEET WITH NO
SIGNIFICANT WEATHER AND/OR OBSTRUCTIONS TO VISIBILITY.


NDZ001>003-009>011-017-220000-
NORTHWEST NORTH DAKOTA

CITY           SKY/WX    TMP DP  RH WIND       PRES   REMARKS
WILLISTON      CLEAR     74  42  31 S7        29.57F
MINOT          CLEAR     72  43  35 SE10      29.62F
MINOT AFB      CLEAR     70  46  41 S12       29.61F
$$

NDZ018>021-031>035-040>046-220000-
SOUTHWEST NORTH DAKOTA

CITY           SKY/WX    TMP DP  RH WIND       PRES   REMARKS
BISMARCK       CLEAR     81  49  32 S21G28    29.66S
DICKINSON      CLEAR     75  47  36 S9        29.60S
GARRISON         N/A     72  48  42 SE6       29.62F
HETTINGER ARPT CLEAR     78  44  29 SE12      29.65S
$$

NDZ004>008-012>016-024-026-027-054-220000-
NORTHEAST NORTH DAKOTA

CITY           SKY/WX    TMP DP  RH WIND       PRES   REMARKS
GRAND FORKS    CLEAR     63  42  46 S23G32    29.84F
GRND FRKS AFB  CLEAR     64  42  45 SE23G33   29.83F
DEVILS LAKE    CLEAR     64  45  48 SE18G25   29.73S
$$

NDZ022-023-025-028>030-036>039-047>053-220000-
SOUTHEAST NORTH DAKOTA

CITY           SKY/WX    TMP DP  RH WIND       PRES   REMARKS
FARGO          CLEAR     64  41  42 SE25G33   29.89S
JAMESTOWN      CLEAR     72  42  34 S17G28    29.77S
$$




USA.gov is the U.S. government's official web portal to all federal, state and local government web resources and services.